�������l�o���
Date,Time,MP-1(��Sv/h),MP-2(��Sv/h),MP-3(��Sv/h),MP-4(��Sv/h),MP-5(��Sv/h),MP-6(��Sv/h),MP-7(��Sv/h),MP-8(��Sv/h),����,����(m/s),���J
2019/05/09,00:00,0.755,1.104,0.758,1.393,1.013,0.439,0.767,0.725,��쓌,3.3,��
2019/05/09,00:10,0.755,1.106,0.759,1.391,1.014,0.439,0.766,0.725,��쓌,4.4,��
2019/05/09,00:20,0.757,1.104,0.758,1.391,1.014,0.439,0.767,0.725,��쓌,4.1,��
2019/05/09,00:30,0.755,1.103,0.758,1.393,1.015,0.439,0.767,0.727,��,2.2,��
2019/05/09,00:40,0.754,1.104,0.759,1.389,1.014,0.439,0.765,0.725,�쓌,2.3,��
2019/05/09,00:50,0.754,1.106,0.759,1.389,1.012,0.439,0.765,0.726,��쓌,2.0,��
2019/05/09,01:00,0.754,1.105,0.758,1.391,1.011,0.439,0.767,0.726,��쐼,1.2,��
2019/05/09,01:10,0.755,1.105,0.757,1.391,1.015,0.438,0.766,0.726,��,1.5,��
2019/05/09,01:20,0.755,1.107,0.758,1.392,1.015,0.438,0.765,0.726,�쓌,2.0,��
2019/05/09,01:30,0.755,1.108,0.755,1.391,1.013,0.438,0.767,0.726,��쓌,3.5,��
2019/05/09,01:40,0.755,1.104,0.759,1.391,1.015,0.439,0.765,0.727,��쓌,3.0,��
2019/05/09,01:50,0.754,1.105,0.758,1.391,1.014,0.439,0.766,0.726,��쓌,4.3,��
2019/05/09,02:00,0.754,1.104,0.756,1.389,1.016,0.439,0.767,0.727,��쓌,5.3,��
2019/05/09,02:10,0.756,1.107,0.759,1.393,1.015,0.437,0.767,0.725,��쓌,6.0,��
2019/05/09,02:20,0.755,1.109,0.759,1.391,1.013,0.440,0.767,0.724,��,6.8,��
2019/05/09,02:30,0.751,1.106,0.759,1.389,1.014,0.439,0.767,0.726,��,5.6,��
2019/05/09,02:40,0.754,1.104,0.758,1.391,1.012,0.438,0.766,0.725,��,4.7,��
2019/05/09,02:50,0.753,1.103,0.756,1.390,1.013,0.438,0.766,0.725,��,4.9,��
2019/05/09,03:00,0.755,1.104,0.758,1.391,1.013,0.439,0.768,0.726,��,5.5,��
2019/05/09,03:10,0.755,1.107,0.757,1.392,1.014,0.437,0.767,0.725,��,6.4,��
2019/05/09,03:20,0.755,1.107,0.758,1.391,1.016,0.438,0.766,0.725,��,5.5,��
2019/05/09,03:30,0.756,1.107,0.759,1.390,1.012,0.439,0.766,0.726,��쐼,4.4,��
2019/05/09,03:40,0.755,1.104,0.758,1.391,1.015,0.438,0.766,0.726,�쐼,3.8,��
2019/05/09,03:50,0.755,1.105,0.758,1.390,1.013,0.438,0.767,0.724,�쐼,2.8,��
2019/05/09,04:00,0.754,1.105,0.759,1.390,1.011,0.439,0.765,0.725,�쐼,2.5,��
2019/05/09,04:10,0.752,1.107,0.759,1.389,1.012,0.438,0.767,0.726,�쐼,3.2,��
2019/05/09,04:20,0.755,1.104,0.759,1.391,1.012,0.438,0.766,0.724,���쐼,3.4,��
2019/05/09,04:30,0.754,1.104,0.757,1.393,1.011,0.437,0.766,0.727,���쐼,2.5,��
2019/05/09,04:40,0.755,1.104,0.759,1.392,1.013,0.437,0.766,0.725,��,1.7,��
2019/05/09,04:50,0.753,1.104,0.759,1.394,1.013,0.439,0.767,0.725,���k��,1.5,��
2019/05/09,05:00,0.753,1.103,0.758,1.392,1.013,0.437,0.765,0.725,���쐼,1.7,��
2019/05/09,05:10,0.755,1.104,0.757,1.389,1.012,0.438,0.767,0.724,�쐼,2.5,��
2019/05/09,05:20,0.755,1.103,0.757,1.391,1.013,0.439,0.768,0.725,���쐼,2.3,��
2019/05/09,05:30,0.753,1.104,0.758,1.393,1.013,0.439,0.767,0.725,��쐼,4.3,��
2019/05/09,05:40,0.755,1.104,0.759,1.391,1.013,0.438,0.767,0.726,�쐼,4.3,��
2019/05/09,05:50,0.754,1.106,0.758,1.391,1.015,0.439,0.766,0.725,��쐼,3.4,��
2019/05/09,06:00,0.753,1.105,0.757,1.392,1.014,0.439,0.769,0.727,���쐼,1.7,��
2019/05/09,06:10,0.753,1.103,0.758,1.392,1.014,0.438,0.766,0.724,���쐼,1.2,��
2019/05/09,06:20,0.756,1.104,0.759,1.392,1.014,0.437,0.766,0.727,��쐼,1.7,��
2019/05/09,06:30,0.754,1.106,0.758,1.392,1.017,0.438,0.768,0.725,��쐼,1.7,��
2019/05/09,06:40,0.757,1.104,0.759,1.390,1.015,0.438,0.767,0.726,�쐼,2.2,��
2019/05/09,06:50,0.756,1.104,0.758,1.395,1.016,0.439,0.768,0.726,��쓌,1.2,��
2019/05/09,07:00,0.756,1.103,0.760,1.392,1.014,0.438,0.768,0.726,��쐼,1.7,��
2019/05/09,07:10,0.755,1.104,0.758,1.391,1.017,0.438,0.769,0.728,��쐼,2.5,��
2019/05/09,07:20,0.754,1.102,0.757,1.393,1.015,0.438,0.767,0.727,��쐼,2.5,��
2019/05/09,07:30,0.756,1.106,0.757,1.392,1.017,0.438,0.767,0.726,�쐼,1.7,��
2019/05/09,07:40,0.756,1.105,0.758,1.393,1.014,0.438,0.769,0.726,�쐼,1.5,��
2019/05/09,07:50,0.757,1.106,0.758,1.394,1.017,0.438,0.766,0.728,��쐼,1.7,��
2019/05/09,08:00,0.758,1.104,0.759,1.393,1.016,0.437,0.767,0.725,��쐼,0.6,��
2019/05/09,08:10,0.756,1.106,0.759,1.393,1.013,0.437,0.766,0.726,��,0.8,��
2019/05/09,08:20,0.757,1.105,0.761,1.393,1.016,0.439,0.766,0.725,�쓌,0.8,��
2019/05/09,08:30,0.756,1.104,0.761,1.398,1.018,0.438,0.767,0.727,�쓌,0.9,��
2019/05/09,08:40,0.756,1.103,0.758,1.394,1.015,0.437,0.766,0.725,��,0.6,��
2019/05/09,08:50,0.757,1.104,0.762,1.394,1.016,0.437,0.764,0.725,���쓌,1.2,��
2019/05/09,09:00,0.755,1.104,0.759,1.394,1.016,0.437,0.765,0.724,�쓌,2.3,��
2019/05/09,09:10,0.758,1.103,0.760,1.393,1.013,0.436,0.768,0.723,�쓌,2.9,��
2019/05/09,09:20,0.754,1.101,0.757,1.394,1.014,0.437,0.764,0.725,�쓌,3.1,��
2019/05/09,09:30,0.754,1.096,0.756,1.394,1.014,0.437,0.767,0.725,�쓌,2.8,��
2019/05/09,09:40,0.757,1.102,0.754,1.393,1.015,0.437,0.768,0.725,��쓌,3.4,��
2019/05/09,09:50,0.755,1.103,0.756,1.395,1.015,0.438,0.767,0.725,��쓌,3.9,��
2019/05/09,10:00,0.755,1.104,0.758,1.396,1.017,0.437,0.767,0.724,��쓌,4.3,��
2019/05/09,10:10,0.754,1.103,0.756,1.394,1.016,0.439,0.768,0.724,��쓌,4.8,��
2019/05/09,10:20,0.757,1.103,0.757,1.395,1.017,0.437,0.767,0.724,��쓌,3.7,��
2019/05/09,10:30,0.756,1.104,0.759,1.397,1.017,0.438,0.769,0.724,��쓌,3.7,��
2019/05/09,10:40,0.756,1.107,0.759,1.396,1.020,0.438,0.768,0.725,��쓌,5.5,��
2019/05/09,10:50,0.759,1.107,0.757,1.394,1.017,0.439,0.769,0.726,��쓌,5.8,��
2019/05/09,11:00,0.757,1.106,0.759,1.396,1.018,0.437,0.769,0.725,��쓌,7.3,��
2019/05/09,11:10,0.756,1.106,0.758,1.394,1.019,0.438,0.769,0.726,��쓌,7.2,��
2019/05/09,11:20,0.759,1.108,0.758,1.393,1.020,0.438,0.769,0.725,��쓌,6.7,��
2019/05/09,11:30,0.756,1.108,0.759,1.393,1.019,0.439,0.769,0.725,��쓌,6.6,��
2019/05/09,11:40,0.757,1.106,0.760,1.393,1.020,0.438,0.772,0.725,��쓌,7.7,��
2019/05/09,11:50,0.759,1.108,0.760,1.393,1.020,0.438,0.771,0.724,��쓌,7.6,��
2019/05/09,12:00,0.758,1.110,0.759,1.394,1.017,0.440,0.770,0.725,��쓌,7.7,��
2019/05/09,12:10,0.758,1.110,0.760,1.396,1.021,0.438,0.770,0.726,��쓌,8.2,��
2019/05/09,12:20,0.759,1.110,0.763,1.397,1.022,0.439,0.770,0.727,��,8.3,��
2019/05/09,12:30,0.760,1.110,0.762,1.396,1.023,0.440,0.771,0.726,��,8.7,��
2019/05/09,12:40,0.759,1.111,0.762,1.396,1.024,0.439,0.770,0.725,��,9.6,��
2019/05/09,12:50,0.760,1.111,0.763,1.395,1.021,0.441,0.771,0.726,��,9.9,��
2019/05/09,13:00,0.759,1.112,0.763,1.396,1.022,0.439,0.767,0.726,��,9.3,��
2019/05/09,13:10,0.761,1.112,0.762,1.398,1.022,0.440,0.771,0.726,��,10.7,��
2019/05/09,13:20,0.759,1.111,0.762,1.394,1.024,0.441,0.769,0.725,��,9.9,��
2019/05/09,13:30,0.761,1.109,0.762,1.397,1.027,0.440,0.769,0.725,��,9.0,��
2019/05/09,13:40,0.760,1.110,0.765,1.396,1.026,0.440,0.769,0.727,��쓌,8.8,��
2019/05/09,13:50,0.759,1.108,0.763,1.397,1.025,0.441,0.769,0.724,��,10.5,��
2019/05/09,14:00,0.760,1.109,0.763,1.397,1.025,0.441,0.769,0.725,��,8.5,��
2019/05/09,14:10,0.761,1.110,0.762,1.400,1.022,0.439,0.768,0.725,��,9.3,��
2019/05/09,14:20,0.758,1.111,0.760,1.397,1.024,0.441,0.769,0.725,��쓌,10.5,��
2019/05/09,14:30,0.760,1.110,0.761,1.398,1.023,0.442,0.769,0.724,��,9.3,��
2019/05/09,14:40,0.761,1.111,0.763,1.397,1.024,0.441,0.768,0.725,��쓌,10.3,��
2019/05/09,14:50,0.760,1.111,0.761,1.398,1.024,0.440,0.769,0.726,��,7.4,��
2019/05/09,15:00,0.758,1.111,0.763,1.398,1.027,0.440,0.768,0.727,��,6.7,��
2019/05/09,15:10,0.761,1.111,0.761,1.398,1.025,0.441,0.768,0.725,��쓌,6.9,��
2019/05/09,15:20,0.760,1.112,0.763,1.398,1.025,0.443,0.769,0.724,��쓌,7.5,��
2019/05/09,15:30,0.760,1.114,0.762,1.397,1.024,0.441,0.769,0.726,��쓌,8.0,��
2019/05/09,15:40,0.760,1.117,0.763,1.397,1.023,0.441,0.769,0.725,��쓌,7.6,��
2019/05/09,15:50,0.760,1.114,0.764,1.399,1.027,0.441,0.769,0.726,��쓌,7.7,��
2019/05/09,16:00,0.761,1.116,0.763,1.400,1.026,0.442,0.768,0.726,��,7.5,��
2019/05/09,16:10,0.760,1.114,0.763,1.395,1.024,0.441,0.771,0.726,��,3.9,��
2019/05/09,16:20,0.761,1.118,0.764,1.398,1.024,0.441,0.770,0.726,��,6.4,��
2019/05/09,16:30,0.761,1.117,0.765,1.402,1.025,0.442,0.771,0.726,��,6.7,��
2019/05/09,16:40,0.761,1.120,0.766,1.401,1.024,0.441,0.771,0.727,��,6.9,��
2019/05/09,16:50,0.762,1.117,0.765,1.404,1.025,0.441,0.770,0.727,��,7.4,��
2019/05/09,17:00,0.760,1.118,0.765,1.403,1.025,0.442,0.769,0.728,��,4.2,��
2019/05/09,17:10,0.759,1.119,0.766,1.402,1.026,0.443,0.768,0.725,��,3.4,��
2019/05/09,17:20,0.758,1.120,0.766,1.403,1.028,0.440,0.769,0.725,��,5.5,��
2019/05/09,17:30,0.760,1.118,0.763,1.405,1.027,0.441,0.769,0.727,��,6.7,��
2019/05/09,17:40,0.758,1.121,0.766,1.405,1.025,0.441,0.769,0.727,��,6.9,��
2019/05/09,17:50,0.762,1.119,0.766,1.402,1.027,0.441,0.768,0.728,��,5.4,��
2019/05/09,18:00,0.761,1.116,0.763,1.403,1.025,0.442,0.768,0.728,��,4.8,��
2019/05/09,18:10,0.761,1.118,0.766,1.404,1.024,0.442,0.769,0.729,��,4.8,��
2019/05/09,18:20,0.763,1.120,0.767,1.403,1.024,0.442,0.770,0.727,�쐼,2.2,��
2019/05/09,18:30,0.761,1.117,0.766,1.403,1.027,0.440,0.769,0.729,���k��,2.0,��
2019/05/09,18:40,0.762,1.119,0.767,1.405,1.028,0.443,0.771,0.730,�k�k��,2.2,��
2019/05/09,18:50,0.765,1.119,0.766,1.406,1.026,0.443,0.769,0.730,�k�k��,3.2,��
2019/05/09,19:00,0.762,1.118,0.768,1.402,1.029,0.442,0.770,0.726,�k,3.5,��
2019/05/09,19:10,0.762,1.118,0.768,1.403,1.026,0.443,0.770,0.727,�k,4.4,��
2019/05/09,19:20,0.761,1.116,0.765,1.404,1.028,0.443,0.770,0.729,�k,4.5,��
2019/05/09,19:30,0.763,1.116,0.766,1.401,1.026,0.443,0.771,0.727,�k,5.5,��
2019/05/09,19:40,0.763,1.120,0.767,1.405,1.029,0.442,0.771,0.728,�k,5.1,��
2019/05/09,19:50,0.762,1.119,0.765,1.404,1.028,0.442,0.773,0.730,�k,5.4,��
2019/05/09,20:00,0.761,1.118,0.766,1.405,1.026,0.443,0.771,0.727,�k�k��,5.0,��
2019/05/09,20:10,0.764,1.119,0.765,1.405,1.029,0.443,0.773,0.728,�k��,4.9,��
2019/05/09,20:20,0.763,1.118,0.765,1.403,1.027,0.443,0.771,0.728,�k��,4.6,��
2019/05/09,20:30,0.763,1.115,0.765,1.402,1.026,0.443,0.772,0.727,���k��,4.7,��
2019/05/09,20:40,0.762,1.117,0.768,1.404,1.027,0.442,0.770,0.728,��,4.7,��
2019/05/09,20:50,0.762,1.115,0.765,1.403,1.026,0.442,0.771,0.729,��,5.9,��
2019/05/09,21:00,0.761,1.118,0.767,1.405,1.026,0.442,0.772,0.726,��,6.1,��
2019/05/09,21:10,0.763,1.119,0.765,1.401,1.027,0.441,0.771,0.728,��,7.3,��
2019/05/09,21:20,0.761,1.120,0.766,1.405,1.028,0.443,0.772,0.728,��,6.7,��
2019/05/09,21:30,0.762,1.115,0.765,1.405,1.028,0.442,0.771,0.727,��,6.6,��
2019/05/09,21:40,0.761,1.116,0.767,1.403,1.025,0.443,0.770,0.729,���k��,6.7,��
2019/05/09,21:50,0.759,1.118,0.767,1.404,1.026,0.442,0.770,0.728,��,7.9,��
2019/05/09,22:00,0.763,1.117,0.767,1.405,1.027,0.441,0.771,0.728,���k��,5.9,��
2019/05/09,22:10,0.762,1.117,0.765,1.403,1.029,0.441,0.773,0.730,���k��,2.6,��
2019/05/09,22:20,0.761,1.113,0.765,1.406,1.027,0.442,0.772,0.729,���쐼,3.0,��
2019/05/09,22:30,0.761,1.117,0.766,1.404,1.026,0.441,0.772,0.729,��,3.8,��
2019/05/09,22:40,0.761,1.115,0.766,1.403,1.026,0.441,0.771,0.729,��,4.2,��
2019/05/09,22:50,0.761,1.118,0.764,1.403,1.026,0.441,0.773,0.729,���k��,4.1,��
2019/05/09,23:00,0.762,1.117,0.766,1.407,1.027,0.442,0.771,0.729,��,4.5,��
2019/05/09,23:10,0.762,1.116,0.765,1.403,1.029,0.441,0.772,0.728,��,8.7,��
2019/05/09,23:20,0.763,1.115,0.767,1.405,1.027,0.441,0.772,0.728,��,11.3,��
2019/05/09,23:30,0.761,1.118,0.766,1.406,1.029,0.440,0.770,0.729,��,10.2,��
2019/05/09,23:40,0.761,1.116,0.767,1.407,1.025,0.443,0.770,0.729,���k��,9.6,��
2019/05/09,23:50,0.761,1.114,0.766,1.407,1.029,0.440,0.771,0.728,�k��,5.9,��
